This is the latest recevied weather packets stored in our database for station/object YO3FVR-WX. If no packets are shown the sender has not sent any weather packets the latest 1 day(s).
| Time | Temp. | Humidity | Pressure | Rain* | Wind** | Luminosity | Snow |
|---|---|---|---|---|---|---|---|
| 1777959040 | 12.78° C | 75% | 1011 hPa | 0 mm | 0 m/s | - | - |
| 1777957813 | 11.67° C | 76% | 1011 hPa | 0 mm | 0 m/s | - | - |
| 1777956612 | 11.11° C | 78% | 1011 hPa | 0 mm | 0 m/s | - | - |
| 1777955380 | 11.11° C | 78% | 1010.9 hPa | 0 mm | 0 m/s | - | - |
| 1777954179 | 10.56° C | 79% | 1010.7 hPa | 0 mm | 0 m/s | - | - |
| 1777952950 | 10° C | 78% | 1010.6 hPa | 0 mm | 0 m/s | - | - |
| 1777951750 | 10° C | 78% | 1010.7 hPa | 0 mm | 0 m/s | - | - |
| 1777950550 | 10° C | 77% | 1010.4 hPa | 0 mm | 0 m/s | - | - |
| 1777949350 | 10.56° C | 76% | 1010.3 hPa | 0 mm | 0 m/s | - | - |
| 1777948120 | 10.56° C | 75% | 1010.4 hPa | 0 mm | 0 m/s | - | - |
| 1777946891 | 11.11° C | 74% | 1010.3 hPa | 0 mm | 0 m/s | - | - |
| 1777945691 | 11.11° C | 73% | 1010.3 hPa | 0 mm | 0 m/s | - | - |
| 1777944460 | 11.11° C | 72% | 1010.3 hPa | 0 mm | 0 m/s | - | - |
| 1777943232 | 11.67° C | 71% | 1010.2 hPa | 0 mm | 0 m/s | - | - |
| 1777942031 | 11.67° C | 69% | 1010.3 hPa | 0 mm | 0 m/s | - | - |
| 1777940807 | 11.67° C | 68% | 1010 hPa | 0 mm | 0 m/s | - | - |
| 1777939575 | 12.22° C | 68% | 1010 hPa | 0 mm | 0 m/s | - | - |
| 1777938375 | 12.22° C | 66% | 1010 hPa | 0 mm | 0 m/s | - | - |
| 1777937171 | 12.78° C | 66% | 1010.1 hPa | 0 mm | 0 m/s | - | - |
| 1777935942 | 13.33° C | 64% | 1010.2 hPa | 0 mm | 0 m/s | - | - |
| 1777934711 | 13.33° C | 63% | 1010.3 hPa | 0 mm | 0 m/s | - | - |
| 1777933510 | 13.89° C | 61% | 1010.4 hPa | 0 mm | 0 m/s | - | - |
* Rain latest hour (hover to see other rain measurements)
** Current wind speed in m/s (hover to see current wind gust speed)